sat.trackr.live / text

‹ back to catalog

STARLINK-32546

NORAD 62134 · 2024-222W

PAYLOAD ACTIVE UNKNOWN

§ Identity

Operator
Country
US
Launch date
2024-11-27
Launch site
AFETR
Launch vehicle
Mass (kg)
RCS (m²)

Purposes: comms

External: N2YO · Heavens-Above · Gunter

§ Orbital elements

Epoch: 2026-05-25T00:57:49.499136Z

Period
94.27 min
Inclination
42.9997°
Eccentricity
0.0000560
Mean motion
15.27574481 rev/d
Perigee alt
482.7 km
Apogee alt
483.4 km
Semi-major
6,861.2 km
B*
5.1705e-4
RAAN
61.7206°
Arg perigee
250.2120°
Mean anomaly
109.8671°
Rev number
8,435

§ Raw data

STARLINK-325461 62134U 24222W   26145.04015624  .00013991  00000+0  51705-3 0  99912 62134  42.9997  61.7206 0000560 250.2120 109.8671 15.27574481 84359

JSON: /api/v1/satellites/62134 · /tle

For live sub-satellite position, see the globe view (requires WebGL).

§ Visibility from observer

Set your observer location to see the next 7 days of passes ≥ 10°. The values pass through the URL so the page stays shareable.

No JS? Fill the form by hand. The geolocation button needs JavaScript.